Weather History for KCDA - November, 2013

Change the Weather History Date:

Saturday, November 9, 2013

  Actual Average (K1V4) Record (K1V4)
Temperature  
Mean Temperature 33 °F 39 °F  
Max Temperature 35 °F 48 °F 68 °F (1996)
Min Temperature 31 °F 30 °F 10 °F (1971)
Degree Days  
Heating Degree Days 32 26  
Month to date heating degree days 223  
Since 1 July heating degree days 1010  
Cooling Degree Days 0 0  
Month to date cooling degree days 0  
Year to date cooling degree days 433  
Moisture  
Dew Point 20 °F    
Average Humidity 60    
Maximum Humidity 78    
Minimum Humidity 51    
Precipitation  
Precipitation 0.00 in 0.11 in 1.46 in (1972)
Month to date precipitation 1.07  
Year to date precipitation 34.09  
Sea Level Pressure  
Sea Level Pressure 30.06 in    
Wind  
Wind Speed 8 mph (WNW)    
Max Wind Speed 15 mph    
Max Gust Speed 23 mph    
Visibility 10 miles    
Events Rain , Snow    
T = Trace of Precipitation, MM = Missing Value Source: NWS Daily Summary

Daily Weather History Graph

Daily Weather History Graph

Search for Another Location

Airport or City:

Trip Planner

Search our weather history database for the weather conditions in past years. The results will help you decide how hot, cold, wet, or windy it might be!

Date:

Astronomy

Nov. 09, 2013 Rise Set
Actual Time 6:36 AM EST 4:26 PM EST
Civil Twilight 6:05 AM EST 4:57 PM EST
Nautical Twilight 5:30 AM EST 5:32 PM EST
Astronomical Twilight 4:56 AM EST 6:06 PM EST
Moon 12:09 PM EST (11/9) 10:56 PM EST (11/9)
Length of Visible Light 10h 51m
Length of Day
9h 49m
Waxing Crescent, 44% of the Moon is Illuminated
Nov 9
Waxing Crescent
Nov 10
First Quarter
Nov 17
Full
Nov 25
Last Quarter
Dec 2
New

Hourly Weather History & Observations

Time (EST) Temp. Windchill Dew Point Humidity Pressure Visibility Wind Dir Wind Speed Gust Speed Precip Events Conditions
12:15 AM 32.0 °F 23.6 °F 20.7 °F 63% 30.03 in 10.0 mi WNW 10.4 mph - N/A   Overcast
12:35 AM 32.0 °F 24.8 °F 20.3 °F 62% 30.03 in 10.0 mi West 8.1 mph 18.4 mph N/A   Overcast
12:55 AM 32.0 °F 22.5 °F 20.3 °F 62% 30.03 in 10.0 mi WNW 12.7 mph - N/A   Overcast
1:15 AM 32.0 °F 23.6 °F 20.1 °F 62% 30.03 in 10.0 mi West 10.4 mph - N/A   Overcast
1:35 AM 32.0 °F 24.2 °F 20.3 °F 62% 30.04 in 10.0 mi West 9.2 mph - N/A   Overcast
1:55 AM 32.0 °F 23.0 °F 20.3 °F 62% 30.04 in 10.0 mi WNW 11.5 mph 18.4 mph N/A   Overcast
2:15 AM 32.0 °F 22.5 °F 20.1 °F 62% 30.05 in 10.0 mi WNW 12.7 mph 17.3 mph N/A   Overcast
2:35 AM 32.0 °F 24.8 °F 20.1 °F 62% 30.05 in 10.0 mi WNW 8.1 mph - N/A   Overcast
2:55 AM 32.0 °F 24.2 °F 20.1 °F 62% 30.05 in 10.0 mi West 9.2 mph - N/A   Overcast
3:15 AM 32.0 °F 24.2 °F 20.1 °F 62% 30.06 in 10.0 mi West 9.2 mph - N/A   Overcast
3:35 AM 32.0 °F 24.8 °F 19.9 °F 61% 30.07 in 10.0 mi WNW 8.1 mph - N/A   Overcast
3:55 AM 32.2 °F 23.2 °F 19.2 °F 59% 30.07 in 10.0 mi WNW 11.5 mph 18.4 mph N/A   Overcast
4:15 AM 32.2 °F 21.8 °F 18.7 °F 58% 30.07 in 10.0 mi WNW 15.0 mph 23.0 mph N/A   Overcast
4:35 AM 32.0 °F 26.4 °F 18.7 °F 58% 30.08 in 10.0 mi WNW 5.8 mph - N/A   Overcast
4:55 AM 32.0 °F 23.0 °F 18.5 °F 58% 30.09 in 10.0 mi WNW 11.5 mph - N/A   Overcast
5:15 AM 32.0 °F 23.6 °F 18.1 °F 57% 30.09 in 10.0 mi WNW 10.4 mph 17.3 mph N/A   Overcast
5:35 AM 32.0 °F 24.8 °F 18.3 °F 57% 30.09 in 10.0 mi WNW 8.1 mph - N/A   Overcast
5:55 AM 32.0 °F 24.8 °F 18.1 °F 57% 30.09 in 10.0 mi WNW 8.1 mph 16.1 mph N/A   Overcast
6:15 AM 32.0 °F 22.1 °F 18.1 °F 57% 30.10 in 10.0 mi WNW 13.8 mph 21.9 mph N/A   Overcast
6:35 AM 32.0 °F 22.5 °F 17.1 °F 54% 30.10 in 10.0 mi WNW 12.7 mph 19.6 mph N/A   Overcast
6:55 AM 32.0 °F 22.1 °F 17.2 °F 55% 30.11 in 10.0 mi WNW 13.8 mph - N/A   Overcast
7:15 AM 32.0 °F 24.8 °F 17.8 °F 56% 30.11 in 10.0 mi NW 8.1 mph - N/A   Overcast
7:35 AM 32.0 °F 24.8 °F 18.1 °F 57% 30.12 in 10.0 mi WNW 8.1 mph - N/A   Overcast
7:55 AM 32.0 °F 28.7 °F 18.7 °F 58% 30.12 in 10.0 mi West 3.5 mph - N/A   Overcast
8:15 AM 32.5 °F 28.1 °F 19.2 °F 58% 30.13 in 10.0 mi West 4.6 mph - N/A   Overcast
8:35 AM 32.9 °F 29.8 °F 19.2 °F 57% 30.13 in 10.0 mi WNW 3.5 mph - N/A   Overcast
8:55 AM 32.5 °F 26.2 °F 18.9 °F 57% 30.13 in 10.0 mi WNW 6.9 mph - N/A   Overcast
9:15 AM 33.3 °F 25.7 °F 19.4 °F 57% 30.13 in 10.0 mi West 9.2 mph - N/A   Overcast
9:35 AM 33.3 °F 25.1 °F 19.4 °F 57% 30.13 in 10.0 mi West 10.4 mph 18.4 mph N/A   Overcast
9:55 AM 33.8 °F 26.4 °F 18.3 °F 53% 30.13 in 10.0 mi WNW 9.2 mph 19.6 mph N/A   Overcast
10:15 AM 35.4 °F 26.0 °F 19.0 °F 51% 30.12 in 10.0 mi West 15.0 mph - N/A   Overcast
10:35 AM 34.0 °F 26.0 °F 18.5 °F 53% 30.12 in 10.0 mi WNW 10.4 mph 21.9 mph N/A   Overcast
10:55 AM 34.2 °F 26.8 °F 17.6 °F 51% 30.12 in 10.0 mi WNW 9.2 mph 19.6 mph N/A   Overcast
11:15 AM 34.2 °F 26.2 °F 20.1 °F 57% 30.11 in 10.0 mi West 10.4 mph - N/A   Overcast
11:35 AM 33.8 °F 25.8 °F 19.4 °F 56% 30.11 in 10.0 mi West 10.4 mph 16.1 mph N/A   Scattered Clouds
11:55 AM 33.4 °F 26.6 °F 19.4 °F 56% 30.11 in 10.0 mi West 8.1 mph - N/A   Scattered Clouds
12:15 PM 33.8 °F 27.7 °F 19.8 °F 56% 30.11 in 10.0 mi WNW 6.9 mph - N/A   Mostly Cloudy
12:35 PM 34.7 °F 28.8 °F 19.6 °F 54% 30.10 in 10.0 mi SW 6.9 mph - N/A   Overcast
12:55 PM 34.9 °F 29.0 °F 18.5 °F 51% 30.09 in 10.0 mi West 6.9 mph - N/A   Mostly Cloudy
1:15 PM 35.1 °F 27.9 °F 18.9 °F 52% 30.08 in 10.0 mi WNW 9.2 mph - N/A   Scattered Clouds
1:35 PM 34.9 °F 29.9 °F 18.7 °F 52% 30.08 in 10.0 mi WNW 5.8 mph - N/A   Mostly Cloudy
1:55 PM 34.7 °F 29.6 °F 18.9 °F 52% 30.07 in 10.0 mi West 5.8 mph - N/A   Overcast
2:15 PM 35.1 °F 29.3 °F 19.2 °F 53% 30.06 in 10.0 mi West 6.9 mph - N/A   Overcast
2:35 PM 35.1 °F 31.0 °F 19.2 °F 53% 30.05 in 10.0 mi WNW 4.6 mph - N/A   Overcast
2:55 PM 34.3 °F 31.4 °F 19.0 °F 54% 30.05 in 10.0 mi West 3.5 mph - N/A   Overcast
3:15 PM 35.1 °F - 19.2 °F 53% 30.05 in 10.0 mi Calm Calm - N/A   Overcast
3:35 PM 35.1 °F - 19.0 °F 52% 30.04 in 10.0 mi Calm Calm - N/A   Overcast
3:55 PM 35.1 °F - 19.2 °F 53% 30.04 in 10.0 mi Calm Calm - N/A   Mostly Cloudy
4:15 PM 34.2 °F - 18.3 °F 52% 30.04 in 10.0 mi Calm Calm - N/A   Scattered Clouds
4:35 PM 33.6 °F - 18.9 °F 55% 30.04 in 10.0 mi Calm Calm - N/A   Mostly Cloudy
4:55 PM 32.4 °F 29.1 °F 19.6 °F 59% 30.04 in 10.0 mi East 3.5 mph - N/A   Mostly Cloudy
5:15 PM 32.0 °F - 19.6 °F 60% 30.04 in 10.0 mi Calm Calm - N/A   Mostly Cloudy
5:35 PM 32.9 °F - 19.6 °F 58% 30.04 in 10.0 mi Calm Calm - N/A   Overcast
5:55 PM 33.1 °F - 19.9 °F 59% 30.04 in 10.0 mi Calm Calm - N/A   Overcast
6:15 PM 32.9 °F - 19.8 °F 59% 30.04 in 10.0 mi Calm Calm - N/A   Mostly Cloudy
6:35 PM 32.5 °F - 19.0 °F 58% 30.04 in 10.0 mi Calm Calm - N/A   Scattered Clouds
6:55 PM 32.5 °F - 19.2 °F 58% 30.04 in 10.0 mi Calm Calm - N/A   Mostly Cloudy
7:15 PM 32.5 °F - 20.3 °F 61% 30.04 in 10.0 mi Calm Calm - N/A   Overcast
7:35 PM 32.4 °F - 20.8 °F 63% 30.04 in 10.0 mi Calm Calm - N/A   Overcast
7:55 PM 32.5 °F - 21.2 °F 63% 30.04 in 10.0 mi Calm Calm - N/A   Overcast
8:15 PM 32.4 °F - 23.9 °F 71% 30.04 in 4.0 mi Calm Calm - N/A Rain Light Rain
8:35 PM 32.0 °F - 25.0 °F 75% 30.04 in 10.0 mi Calm Calm - N/A   Overcast
9:35 PM 32.0 °F 26.4 °F 24.8 °F 75% 30.02 in 10.0 mi NNE 5.8 mph - N/A   Overcast
9:55 PM 32.0 °F - 24.8 °F 75% 30.01 in 10.0 mi Calm Calm - N/A   Overcast
10:15 PM 32.0 °F - 24.3 °F 73% 30.00 in 10.0 mi Calm Calm - N/A   Overcast
10:35 PM 31.8 °F 28.5 °F 23.9 °F 73% 29.99 in 10.0 mi SSW 3.5 mph - N/A   Overcast
10:55 PM 32.4 °F 26.9 °F 24.3 °F 72% 29.98 in 7.0 mi SSE 5.8 mph - N/A Snow Light Snow
11:15 PM 32.0 °F 28.7 °F 25.3 °F 76% 29.97 in 5.0 mi SE 3.5 mph - N/A Snow Light Snow
11:35 PM 32.0 °F - 25.7 °F 78% 29.96 in 5.0 mi Calm Calm - N/A Snow Light Snow
11:55 PM 32.0 °F 27.5 °F 25.9 °F 78% 29.95 in 4.0 mi SSE 4.6 mph - N/A Snow Light Snow